Time,TemperatureF,DewpointF,PressureIn,WindDirection,WindDirectionDegrees,WindSpeedMPH,WindSpeedGustMPH,Humidity,HourlyPrecipIn,Conditions,Clouds,dailyrainin,SoftwareType,DateUTC
2013-03-28 00:02:00,47.0,33.0,-100.00,NW,316,3.0,4.0,57,-99.99,,,-99.99,,2013-03-28 07:02:00,
2013-03-28 00:12:00,46.0,34.0,-100.00,NNW,337,3.0,3.0,62,-99.99,,,-99.99,,2013-03-28 07:12:00,
2013-03-28 00:22:00,46.0,34.0,-100.00,NNW,329,2.0,3.0,63,-99.99,,,-99.99,,2013-03-28 07:22:00,
2013-03-28 00:32:00,47.0,35.0,-100.00,NW,321,2.0,3.0,64,-99.99,,,-99.99,,2013-03-28 07:32:00,
2013-03-28 00:42:00,47.0,36.0,-100.00,NW,317,2.0,3.0,65,-99.99,,,-99.99,,2013-03-28 07:42:00,
2013-03-28 00:52:00,47.0,36.0,-100.00,NNW,339,1.0,2.0,65,-99.99,,,-99.99,,2013-03-28 07:52:00,
2013-03-28 01:02:00,47.0,36.0,-100.00,NNW,327,2.0,3.0,65,-99.99,,,-99.99,,2013-03-28 08:02:00,
2013-03-28 01:11:00,47.0,36.0,-100.00,NNW,341,2.0,3.0,66,-99.99,,,-99.99,,2013-03-28 08:11:00,
2013-03-28 01:21:00,47.0,36.0,-100.00,NW,319,3.0,5.0,66,-99.99,,,-99.99,,2013-03-28 08:21:00,
2013-03-28 01:32:00,47.0,36.0,-100.00,NW,319,3.0,5.0,66,-99.99,,,-99.99,,2013-03-28 08:32:00,
2013-03-28 01:42:00,47.0,36.0,-100.00,NNW,331,2.0,3.0,65,-99.99,,,-99.99,,2013-03-28 08:42:00,
2013-03-28 01:52:00,47.0,36.0,-100.00,NW,317,2.0,3.0,65,-99.99,,,-99.99,,2013-03-28 08:52:00,
2013-03-28 02:01:00,48.0,36.0,-100.00,NW,314,2.0,3.0,64,-99.99,,,-99.99,,2013-03-28 09:01:00,
2013-03-28 02:11:00,47.0,36.0,-100.00,NNW,348,1.0,2.0,65,-99.99,,,-99.99,,2013-03-28 09:11:00,
2013-03-28 02:22:00,48.0,36.0,-100.00,NNW,340,1.0,3.0,64,-99.99,,,-99.99,,2013-03-28 09:22:00,
2013-03-28 02:32:00,48.0,37.0,-100.00,NW,306,3.0,4.0,65,-99.99,,,-99.99,,2013-03-28 09:32:00,
2013-03-28 02:42:00,48.0,37.0,-100.00,NNW,332,3.0,4.0,65,-99.99,,,-99.99,,2013-03-28 09:42:00,
2013-03-28 02:52:00,48.0,36.0,-100.00,NNW,344,3.0,3.0,64,-99.99,,,-99.99,,2013-03-28 09:52:00,
2013-03-28 03:02:00,48.0,36.0,-100.00,NNW,335,2.0,3.0,63,-99.99,,,-99.99,,2013-03-28 10:02:00,
2013-03-28 03:12:00,49.0,36.0,-100.00,NW,316,1.0,2.0,61,-99.99,,,-99.99,,2013-03-28 10:12:00,
2013-03-28 03:22:00,49.0,37.0,-100.00,NW,318,2.0,4.0,62,-99.99,,,-99.99,,2013-03-28 10:22:00,
2013-03-28 03:32:00,49.0,37.0,-100.00,NNW,331,2.0,3.0,62,-99.99,,,-99.99,,2013-03-28 10:32:00,
2013-03-28 03:42:00,49.0,37.0,-100.00,NNW,332,3.0,4.0,62,-99.99,,,-99.99,,2013-03-28 10:42:00,
2013-03-28 03:52:00,48.0,36.0,-100.00,NW,325,3.0,5.0,62,-99.99,,,-99.99,,2013-03-28 10:52:00,
2013-03-28 04:02:00,48.0,36.0,-100.00,NW,326,3.0,5.0,64,-99.99,,,-99.99,,2013-03-28 11:02:00,
2013-03-28 04:12:00,47.0,36.0,-100.00,NNW,328,4.0,5.0,65,-99.99,,,-99.99,,2013-03-28 11:12:00,
2013-03-28 04:22:00,47.0,36.0,-100.00,NW,323,4.0,5.0,65,-99.99,,,-99.99,,2013-03-28 11:22:00,
2013-03-28 04:32:00,46.0,36.0,-100.00,NNW,330,4.0,5.0,67,-99.99,,,-99.99,,2013-03-28 11:32:00,
2013-03-28 04:42:00,47.0,36.0,-100.00,NW,319,4.0,5.0,66,-99.99,,,-99.99,,2013-03-28 11:42:00,
2013-03-28 04:52:00,47.0,36.0,-100.00,NW,322,4.0,5.0,65,-99.99,,,-99.99,,2013-03-28 11:52:00,
2013-03-28 05:02:00,47.0,35.0,-100.00,NW,318,3.0,5.0,64,-99.99,,,-99.99,,2013-03-28 12:02:00,
2013-03-28 05:12:00,47.0,36.0,-100.00,NW,326,3.0,5.0,65,-99.99,,,-99.99,,2013-03-28 12:12:00,
2013-03-28 05:22:00,47.0,35.0,-100.00,NW,321,4.0,5.0,64,-99.99,,,-99.99,,2013-03-28 12:22:00,
2013-03-28 05:32:00,47.0,36.0,-100.00,NW,312,4.0,5.0,66,-99.99,,,-99.99,,2013-03-28 12:32:00,
2013-03-28 05:42:00,47.0,36.0,-100.00,NW,324,4.0,5.0,66,-99.99,,,-99.99,,2013-03-28 12:42:00,
2013-03-28 05:51:00,47.0,35.0,-100.00,NW,323,4.0,5.0,64,-99.99,,,-99.99,,2013-03-28 12:51:00,
2013-03-28 06:02:00,47.0,36.0,-100.00,NW,322,5.0,6.0,65,-99.99,,,-99.99,,2013-03-28 13:02:00,
2013-03-28 06:11:00,47.0,36.0,-100.00,NW,310,4.0,5.0,65,-99.99,,,-99.99,,2013-03-28 13:11:00,
2013-03-28 06:22:00,47.0,35.0,-100.00,NW,314,4.0,6.0,62,-99.99,,,-99.99,,2013-03-28 13:22:00,
2013-03-28 06:32:00,48.0,34.0,-100.00,NW,312,5.0,5.0,59,-99.99,,,-99.99,,2013-03-28 13:32:00,
2013-03-28 06:41:00,47.0,33.0,-100.00,NW,320,5.0,6.0,58,-99.99,,,-99.99,,2013-03-28 13:41:00,
2013-03-28 06:52:00,47.0,31.0,-100.00,NW,323,4.0,5.0,53,-99.99,,,-99.99,,2013-03-28 13:52:00,
2013-03-28 07:02:00,47.0,31.0,-100.00,NW,323,4.0,5.0,53,-99.99,,,-99.99,,2013-03-28 14:02:00,
2013-03-28 07:12:00,47.0,29.0,-100.00,NNW,336,5.0,6.0,49,-99.99,,,-99.99,,2013-03-28 14:12:00,
2013-03-28 07:22:00,47.0,28.0,-100.00,NNW,336,5.0,5.0,48,-99.99,,,-99.99,,2013-03-28 14:22:00,
2013-03-28 07:32:00,47.0,28.0,-100.00,NNW,336,5.0,5.0,48,-99.99,,,-99.99,,2013-03-28 14:32:00,
2013-03-28 07:42:00,48.0,27.0,-100.00,NNW,332,5.0,6.0,43,-99.99,,,-99.99,,2013-03-28 14:42:00,
2013-03-28 07:51:00,48.0,27.0,-100.00,NNW,332,5.0,6.0,43,-99.99,,,-99.99,,2013-03-28 14:51:00,
2013-03-28 08:02:00,48.0,30.0,-100.00,NNW,327,6.0,7.0,50,-99.99,,,-99.99,,2013-03-28 15:02:00,
2013-03-28 08:11:00,49.0,31.0,-100.00,NW,324,5.0,7.0,49,-99.99,,,-99.99,,2013-03-28 15:11:00,
2013-03-28 08:21:00,50.0,31.0,-100.00,NNW,328,4.0,6.0,47,-99.99,,,-99.99,,2013-03-28 15:21:00,
2013-03-28 08:32:00,55.0,27.0,-100.00,WNW,302,4.0,6.0,34,-99.99,,,-99.99,,2013-03-28 15:32:00,
2013-03-28 08:43:00,56.0,28.0,-100.00,NW,319,5.0,7.0,34,-99.99,,,-99.99,,2013-03-28 15:43:00,
2013-03-28 08:52:00,54.0,33.0,-100.00,NW,317,5.0,7.0,44,-99.99,,,-99.99,,2013-03-28 15:52:00,
2013-03-28 09:02:00,55.0,33.0,-100.00,NW,310,5.0,7.0,43,-99.99,,,-99.99,,2013-03-28 16:02:00,
2013-03-28 09:12:00,57.0,30.0,-100.00,NNW,330,5.0,7.0,35,-99.99,,,-99.99,,2013-03-28 16:12:00,
2013-03-28 09:22:00,58.0,29.0,-100.00,NNW,334,4.0,6.0,33,-99.99,,,-99.99,,2013-03-28 16:22:00,
2013-03-28 09:32:00,58.0,30.0,-100.00,NNW,332,4.0,6.0,34,-99.99,,,-99.99,,2013-03-28 16:32:00,
2013-03-28 09:42:00,58.0,30.0,-100.00,NNW,332,4.0,6.0,34,-99.99,,,-99.99,,2013-03-28 16:42:00,
2013-03-28 09:52:00,61.0,27.0,-100.00,WNW,287,6.0,9.0,27,-99.99,,,-99.99,,2013-03-28 16:52:00,
2013-03-28 10:02:00,61.0,28.0,-100.00,WNW,294,5.0,9.0,28,-99.99,,,-99.99,,2013-03-28 17:02:00,
2013-03-28 10:12:00,61.0,29.0,-100.00,NW,318,6.0,10.0,29,-99.99,,,-99.99,,2013-03-28 17:12:00,
2013-03-28 10:21:00,63.0,30.0,-100.00,NW,316,6.0,10.0,29,-99.99,,,-99.99,,2013-03-28 17:21:00,
2013-03-28 10:32:00,63.0,29.0,-100.00,NW,314,8.0,15.0,28,-99.99,,,-99.99,,2013-03-28 17:32:00,
2013-03-28 10:42:00,64.0,30.0,-100.00,WNW,300,8.0,13.0,28,-99.99,,,-99.99,,2013-03-28 17:42:00,
2013-03-28 10:52:00,65.0,30.0,-100.00,NW,308,7.0,12.0,27,-99.99,,,-99.99,,2013-03-28 17:52:00,
2013-03-28 11:02:00,64.0,29.0,-100.00,WNW,297,8.0,14.0,27,-99.99,,,-99.99,,2013-03-28 18:02:00,
2013-03-28 11:12:00,64.0,29.0,-100.00,West,281,9.0,14.0,27,-99.99,,,-99.99,,2013-03-28 18:12:00,
2013-03-28 11:22:00,64.0,29.0,-100.00,West,275,9.0,15.0,27,-99.99,,,-99.99,,2013-03-28 18:22:00,
2013-03-28 11:32:00,64.0,30.0,-100.00,WNW,283,7.0,14.0,28,-99.99,,,-99.99,,2013-03-28 18:32:00,
2013-03-28 11:42:00,64.0,29.0,-100.00,West,281,8.0,13.0,27,-99.99,,,-99.99,,2013-03-28 18:42:00,
2013-03-28 11:52:00,65.0,29.0,-100.00,West,273,8.0,15.0,26,-99.99,,,-99.99,,2013-03-28 18:52:00,
2013-03-28 12:01:00,66.0,28.0,-100.00,WNW,301,8.0,14.0,24,-99.99,,,-99.99,,2013-03-28 19:01:00,
2013-03-28 12:12:00,66.0,29.0,-100.00,WNW,289,7.0,12.0,25,-99.99,,,-99.99,,2013-03-28 19:12:00,
2013-03-28 12:22:00,66.0,29.0,-100.00,WNW,294,7.0,14.0,25,-99.99,,,-99.99,,2013-03-28 19:22:00,
2013-03-28 12:32:00,66.0,29.0,-100.00,West,280,9.0,15.0,25,-99.99,,,-99.99,,2013-03-28 19:32:00,
2013-03-28 12:42:00,67.0,30.0,-100.00,NW,309,8.0,13.0,25,-99.99,,,-99.99,,2013-03-28 19:42:00,
2013-03-28 12:52:00,66.0,29.0,-100.00,WNW,303,8.0,16.0,25,-99.99,,,-99.99,,2013-03-28 19:52:00,
2013-03-28 13:02:00,67.0,31.0,-100.00,WNW,284,9.0,16.0,26,-99.99,,,-99.99,,2013-03-28 20:02:00,
2013-03-28 13:12:00,67.0,31.0,-100.00,West,276,8.0,16.0,26,-99.99,,,-99.99,,2013-03-28 20:12:00,
2013-03-28 13:22:00,67.0,30.0,-100.00,West,277,9.0,17.0,25,-99.99,,,-99.99,,2013-03-28 20:22:00,
2013-03-28 13:32:00,67.0,30.0,-100.00,WNW,292,9.0,18.0,25,-99.99,,,-99.99,,2013-03-28 20:32:00,
2013-03-28 13:42:00,67.0,31.0,-100.00,WNW,286,9.0,16.0,26,-99.99,,,-99.99,,2013-03-28 20:42:00,
2013-03-28 13:52:00,67.0,31.0,-100.00,WNW,293,10.0,19.0,26,-99.99,,,-99.99,,2013-03-28 20:52:00,
2013-03-28 14:02:00,68.0,32.0,-100.00,West,281,9.0,15.0,26,-99.99,,,-99.99,,2013-03-28 21:02:00,
2013-03-28 14:12:00,68.0,33.0,-100.00,West,267,9.0,19.0,27,-99.99,,,-99.99,,2013-03-28 21:12:00,
2013-03-28 14:22:00,67.0,31.0,-100.00,West,271,11.0,17.0,26,-99.99,,,-99.99,,2013-03-28 21:22:00,
2013-03-28 14:32:00,67.0,31.0,-100.00,WNW,293,10.0,17.0,26,-99.99,,,-99.99,,2013-03-28 21:32:00,
2013-03-28 14:42:00,67.0,32.0,-100.00,West,279,8.0,17.0,27,-99.99,,,-99.99,,2013-03-28 21:42:00,
2013-03-28 14:52:00,67.0,33.0,-100.00,West,263,8.0,17.0,28,-99.99,,,-99.99,,2013-03-28 21:52:00,
2013-03-28 15:02:00,66.0,34.0,-100.00,WSW,257,8.0,16.0,31,-99.99,,,-99.99,,2013-03-28 22:02:00,
2013-03-28 15:12:00,67.0,35.0,-100.00,West,280,8.0,15.0,30,-99.99,,,-99.99,,2013-03-28 22:12:00,
2013-03-28 15:22:00,66.0,35.0,-100.00,West,273,8.0,17.0,32,-99.99,,,-99.99,,2013-03-28 22:22:00,
2013-03-28 15:32:00,66.0,37.0,-100.00,West,273,9.0,16.0,34,-99.99,,,-99.99,,2013-03-28 22:32:00,
2013-03-28 15:42:00,65.0,38.0,-100.00,West,267,8.0,15.0,37,-99.99,,,-99.99,,2013-03-28 22:42:00,
2013-03-28 15:52:00,66.0,38.0,-100.00,WNW,290,8.0,14.0,36,-99.99,,,-99.99,,2013-03-28 22:52:00,
2013-03-28 16:02:00,65.0,39.0,-100.00,West,277,9.0,15.0,39,-99.99,,,-99.99,,2013-03-28 23:02:00,
2013-03-28 16:12:00,65.0,39.0,-100.00,West,281,8.0,14.0,39,-99.99,,,-99.99,,2013-03-28 23:12:00,
2013-03-28 16:21:00,65.0,39.0,-100.00,West,281,8.0,15.0,39,-99.99,,,-99.99,,2013-03-28 23:21:00,
2013-03-28 16:32:00,65.0,40.0,-100.00,WNW,283,10.0,16.0,40,-99.99,,,-99.99,,2013-03-28 23:32:00,
2013-03-28 16:42:00,65.0,41.0,-100.00,WNW,282,9.0,14.0,41,-99.99,,,-99.99,,2013-03-28 23:42:00,
2013-03-28 16:52:00,65.0,41.0,-100.00,WNW,288,8.0,14.0,41,-99.99,,,-99.99,,2013-03-28 23:52:00,
2013-03-28 17:02:00,65.0,41.0,-100.00,WNW,283,8.0,14.0,42,-99.99,,,-99.99,,2013-03-29 00:02:00,
2013-03-28 17:11:00,65.0,40.0,-100.00,NW,307,6.0,12.0,40,-99.99,,,-99.99,,2013-03-29 00:11:00,
2013-03-28 17:22:00,65.0,41.0,-100.00,WNW,300,8.0,15.0,41,-99.99,,,-99.99,,2013-03-29 00:22:00,
2013-03-28 17:32:00,64.0,40.0,-100.00,NW,305,8.0,14.0,42,-99.99,,,-99.99,,2013-03-29 00:32:00,
2013-03-28 17:42:00,64.0,40.0,-100.00,NW,305,8.0,14.0,42,-99.99,,,-99.99,,2013-03-29 00:42:00,
2013-03-28 17:52:00,63.0,40.0,-100.00,NW,307,7.0,12.0,43,-99.99,,,-99.99,,2013-03-29 00:52:00,
2013-03-28 18:02:00,63.0,40.0,-100.00,NW,309,7.0,11.0,42,-99.99,,,-99.99,,2013-03-29 01:02:00,
2013-03-28 18:12:00,62.0,40.0,-100.00,NW,318,6.0,12.0,45,-99.99,,,-99.99,,2013-03-29 01:12:00,
2013-03-28 18:22:00,62.0,40.0,-100.00,NW,313,6.0,11.0,45,-99.99,,,-99.99,,2013-03-29 01:22:00,
2013-03-28 18:31:00,62.0,40.0,-100.00,NW,305,6.0,11.0,44,-99.99,,,-99.99,,2013-03-29 01:31:00,
2013-03-28 18:42:00,62.0,39.0,-100.00,NW,304,6.0,10.0,42,-99.99,,,-99.99,,2013-03-29 01:42:00,
2013-03-28 18:52:00,61.0,37.0,-100.00,NW,308,6.0,10.0,41,-99.99,,,-99.99,,2013-03-29 01:52:00,
2013-03-28 19:02:00,61.0,38.0,-100.00,WNW,301,6.0,10.0,42,-99.99,,,-99.99,,2013-03-29 02:02:00,
2013-03-28 19:11:00,60.0,37.0,-100.00,NW,307,5.0,8.0,43,-99.99,,,-99.99,,2013-03-29 02:11:00,
2013-03-28 19:22:00,59.0,37.0,-100.00,NW,313,5.0,8.0,44,-99.99,,,-99.99,,2013-03-29 02:22:00,
2013-03-28 19:32:00,58.0,37.0,-100.00,WNW,303,3.0,7.0,45,-99.99,,,-99.99,,2013-03-29 02:32:00,
2013-03-28 19:42:00,57.0,38.0,-100.00,WNW,300,3.0,5.0,48,-99.99,,,-99.99,,2013-03-29 02:42:00,
2013-03-28 19:52:00,56.0,38.0,-100.00,WNW,289,4.0,5.0,50,-99.99,,,-99.99,,2013-03-29 02:52:00,
2013-03-28 20:02:00,56.0,39.0,-100.00,NW,308,3.0,5.0,52,-99.99,,,-99.99,,2013-03-29 03:02:00,
2013-03-28 20:12:00,56.0,39.0,-100.00,NW,308,2.0,4.0,53,-99.99,,,-99.99,,2013-03-29 03:12:00,
2013-03-28 20:21:00,56.0,39.0,-100.00,WNW,303,3.0,4.0,53,-99.99,,,-99.99,,2013-03-29 03:21:00,
2013-03-28 20:32:00,56.0,40.0,-100.00,WNW,288,3.0,5.0,54,-99.99,,,-99.99,,2013-03-29 03:32:00,
2013-03-28 20:42:00,55.0,40.0,-100.00,NW,310,3.0,5.0,56,-99.99,,,-99.99,,2013-03-29 03:42:00,
2013-03-28 20:52:00,54.0,39.0,-100.00,NW,306,3.0,4.0,57,-99.99,,,-99.99,,2013-03-29 03:52:00,
2013-03-28 21:02:00,54.0,39.0,-100.00,NNW,333,3.0,4.0,57,-99.99,,,-99.99,,2013-03-29 04:02:00,
2013-03-28 21:12:00,54.0,38.0,-100.00,NW,322,2.0,4.0,54,-99.99,,,-99.99,,2013-03-29 04:12:00,
2013-03-28 21:22:00,55.0,37.0,-100.00,NW,321,3.0,4.0,51,-99.99,,,-99.99,,2013-03-29 04:22:00,
2013-03-28 21:32:00,55.0,37.0,-100.00,NNW,332,4.0,5.0,51,-99.99,,,-99.99,,2013-03-29 04:32:00,
2013-03-28 21:42:00,53.0,38.0,-100.00,NNW,336,5.0,6.0,56,-99.99,,,-99.99,,2013-03-29 04:42:00,
2013-03-28 21:52:00,52.0,38.0,-100.00,NNW,346,5.0,6.0,58,-99.99,,,-99.99,,2013-03-29 04:52:00,
2013-03-28 22:02:00,52.0,38.0,-100.00,NNW,347,4.0,5.0,58,-99.99,,,-99.99,,2013-03-29 05:02:00,
2013-03-28 22:12:00,53.0,38.0,-100.00,NNW,342,4.0,5.0,56,-99.99,,,-99.99,,2013-03-29 05:12:00,
2013-03-28 22:22:00,53.0,37.0,-100.00,NNW,339,4.0,5.0,54,-99.99,,,-99.99,,2013-03-29 05:22:00,
2013-03-28 22:32:00,52.0,37.0,-100.00,NNW,329,5.0,6.0,56,-99.99,,,-99.99,,2013-03-29 05:32:00,
2013-03-28 22:42:00,52.0,36.0,-100.00,NW,326,5.0,7.0,55,-99.99,,,-99.99,,2013-03-29 05:42:00,
2013-03-28 22:52:00,52.0,37.0,-100.00,NNW,327,4.0,6.0,56,-99.99,,,-99.99,,2013-03-29 05:52:00,
2013-03-28 23:02:00,51.0,36.0,-100.00,East,84,1.0,4.0,57,-99.99,,,-99.99,,2013-03-29 06:02:00,
2013-03-28 23:12:00,51.0,37.0,-100.00,NNW,335,2.0,4.0,58,-99.99,,,-99.99,,2013-03-29 06:12:00,
2013-03-28 23:22:00,51.0,37.0,-100.00,NNW,336,3.0,5.0,58,-99.99,,,-99.99,,2013-03-29 06:22:00,
2013-03-28 23:32:00,51.0,37.0,-100.00,NNW,340,3.0,4.0,59,-99.99,,,-99.99,,2013-03-29 06:32:00,
2013-03-28 23:42:00,52.0,37.0,-100.00,NW,326,3.0,4.0,56,-99.99,,,-99.99,,2013-03-29 06:42:00,
2013-03-28 23:52:00,51.0,37.0,-100.00,NNW,333,4.0,5.0,59,-99.99,,,-99.99,,2013-03-29 06:52:00,